STARLINK-30186, 57470

Orbit data source: Space-Track

STARLINK-30186, 57470 is a payload satellite owned by SpaceX/Seattle (US) in LEO that was launched on Fri, 28 Jul 2023 UTC via an FALCON 9 launch vehicle from the Air Force Eastern Test Range (AFETR). Payload-class satellites include a variety of spacecraft equipped with specific instruments for various scientific and technological missions. These include communications satellites like Starlink; space stations such as the ISS; scientific satellites like the Hubble; Earth observation satellites from companies like Planet Labs, Umbra, and HawkEye 360; GPS; miniature CubeSats for education and research; and military/defense satellites.

Loading next visibility...
Identifier
57470, 2023-107P
Orbit
LEO
Country
Flag of USUS
Related business
Manufacturer
SpaceX/Seattle
Mission
Partially operational Commercial Communications
Bus & Motor
STARLINK V2M, Unknown motor
Mass
730 kg wet, ~700 kg dry
Launch date (UTC)
2023-07-28 (3 years ago)
Launch vehicle
FALCON 9
Launch site
Air Force Eastern Test Range (AFETR)
Object type
Payload
Rocket body
Debris
Shape & HBR
Box + 2 Pan, 17.7 m
Radar Cross Section
33.884 m², Large (>1 m²)

Expand to show TLE details & history
Last TLE update: 2 days ago

TLE from 2 days ago
0 STARLINK-30186
1 57470U 23107P   26171.41668980  .00122605  00000-0  28897-2 0  9997
2 57470  43.0002 122.8041 0001850 282.9468 210.8360 15.40758896  5889
Epoch: 2026-06-20T10:00Z
TLE epoch observation values (Epoch: 2026-06-20T10:00:01.998Z)
Latitude
29.61477°
Longitude
-153.14872°
Altitude
445.46 km
Speed
7.649 km/s
True Right ascension
17h 41m 57s
True Declination
29° 27' 38"
Sunlit
Object was in full shadow at epoch
Visualization orbit readout
Latitude
Unknown
Longitude
Unknown
Altitude
Unknown
Speed
Unknown
Apparent Right ascension
Unknown
Apparent Declination
Unknown
Sunlit
N/A
Visualization observer readout
Local Sidereal Time
21:31:20
Azimuth
Unknown
Elevation
Unknown
Doppler factor
Unknown
Orbital elements
Apogee altitude
447.087 km
Perigee altitude
444.562 km
Semi-major axis
6,823.962 km
Eccentricity
0.00019
Inclination
43.0002°
RAAN
122.8041°
Arg. of periapsis
282.9468°
True anomaly
210.82514°
Mean anomaly
210.836°
Eccentric anomaly
210.83057°
Mean motion
3.85024 °/min
Orbital period
93.5 mins
BSTAR
0.0028897
Loading maneuver chart data...
Computing Atmospheric mass density...
Loading historical data...
Loading historical data...
Loading historical data...
Loading historical data...
Loading historical data...
Loading historical data...
Loading historical data...

Documentation

Showing up to 5 results
|